Torna al catalogo

HELIOS 2A

AttivoMilitarePO
NORAD 28492·PAYLOAD·🇫🇷 France

Lanciato Dec 18, 2004 da Guiana Space Centre

Loading…

Prossimi Passaggi (prossime 24 ore)

TLE

AggiornatoSource: Space-Track

Epoca: Sep 14, 2026, 14:00 UTC

1 28492U 04049A   26257.58387202  .00001802  00000-0  13893-3 0  9997
2 28492  98.2474 317.0782 0003118  39.4776 320.6674 15.03031840167195

Traccia HELIOS 2A in tempo reale con AllMySat

Download on the App Store